| time (UTC) | temp F | wind direction | speed knots | gust knots | rain 1hr in | rain 24hr in | rain mn in | humidity % | barometer mb |
| 20260508162352 | 69 | 0 | 0.0 | 0.0 | 0.00 | 0.00 | 0.00 | 26 | 1010.6 |
| 20260508161452 | 71 | 0 | 0.0 | 0.0 | 0.00 | 0.00 | 0.00 | 23 | 1010.6 |
| 20260508160552 | 72 | 0 | 0.0 | 0.0 | 0.00 | 0.00 | 0.00 | 9 | 1011.6 |
| 20260508155652 | 75 | 0 | 0.0 | 0.0 | 0.00 | 0.00 | 0.00 | 2 | 1011.6 |
| 20260508153851 | 79 | 22 | 0.0 | 0.9 | 0.00 | 0.00 | 0.00 | 2 | 1010.6 |
| 20260508152952 | 81 | 0 | 0.0 | 0.0 | 0.00 | 0.00 | 0.00 | 2 | 1010.6 |
| 20260508152051 | 82 | 0 | 0.0 | 0.0 | 0.00 | 0.00 | 0.00 | 2 | 1011.6 |
| 20260508151152 | 84 | 292 | 0.0 | 1.7 | 0.00 | 0.00 | 0.00 | 2 | 1011.6 |
| 20260508150252 | 84 | 292 | 0.0 | 3.5 | 0.00 | 0.00 | 0.00 | 2 | 1011.6 |
| 20260508145351 | 84 | 0 | 0.0 | 0.0 | 0.00 | 0.00 | 0.00 | 2 | 1011.6 |
| 20260508144451 | 83 | 314 | 0.0 | 3.5 | 0.00 | 0.00 | 0.00 | 2 | 1011.6 |
| 20260508143551 | 82 | 280 | 0.9 | 3.5 | 0.00 | 0.00 | 0.00 | 2 | 1011.6 |
| 20260508140851 | 85 | 319 | 0.0 | 5.2 | 0.00 | 0.00 | 0.00 | 2 | 1011.6 |
| 20260508135951 | 89 | 281 | 0.0 | 4.3 | 0.00 | 0.00 | 0.00 | 2 | 1011.6 |
| 20260508135051 | 89 | 0 | 0.0 | 0.0 | 0.00 | 0.00 | 0.00 | 2 | 1012.7 |
| 20260508134151 | 89 | 0 | 0.0 | 0.0 | 0.00 | 0.00 | 0.00 | 2 | 1011.6 |
| 20260508133251 | 89 | 0 | 0.0 | 0.0 | 0.00 | 0.00 | 0.00 | 2 | 1011.6 |
| 20260508132351 | 88 | 248 | 0.0 | 2.6 | 0.00 | 0.00 | 0.00 | 2 | 1010.6 |
| 20260508131451 | 88 | 158 | 0.0 | 0.9 | 0.00 | 0.00 | 0.00 | 2 | 1010.6 |
| 20260508125651 | 89 | 163 | 0.0 | 1.7 | 0.00 | 0.00 | 0.00 | 2 | 1012.7 |
| 20260508124751 | 88 | 0 | 0.0 | 0.0 | 0.00 | 0.00 | 0.00 | 2 | 1012.7 |
| 20260508123851 | 85 | 0 | 0.0 | 0.0 | 0.00 | 0.00 | 0.00 | 2 | 1012.7 |
| 20260508122951 | 85 | 0 | 0.0 | 0.0 | 0.00 | 0.00 | 0.00 | 2 | 1012.7 |
| 20260508122051 | 87 | 0 | 0.0 | 0.0 | 0.00 | 0.00 | 0.00 | 2 | 1012.7 |
| 20260508120251 | 83 | 0 | 0.0 | 0.0 | 0.00 | 0.00 | 0.00 | 2 | 1012.7 |
| 20260508115351 | 82 | 0 | 0.0 | 0.0 | 0.00 | 0.00 | 0.00 | 2 | 1013.7 |
| 20260508114451 | 82 | 248 | 0.0 | 2.6 | 0.00 | 0.00 | 0.00 | 2 | 1013.7 |
| 20260508112651 | 86 | 150 | 0.0 | 8.7 | 0.00 | 0.00 | 0.00 | 2 | 1013.7 |
| 20260508111750 | 88 | 337 | 0.0 | 0.9 | 0.00 | 0.00 | 0.00 | 2 | 1013.7 |
| 20260508110850 | 93 | 0 | 0.0 | 0.0 | 0.00 | 0.00 | 0.00 | 2 | 1013.7 |
| 20260508105051 | 95 | 0 | 0.0 | 0.0 | 0.00 | 0.00 | 0.00 | 2 | 1013.7 |
| 20260508103250 | 94 | 0 | 0.0 | 0.0 | 0.00 | 0.00 | 0.00 | 2 | 1013.7 |
| 20260508102350 | 94 | 0 | 0.0 | 0.0 | 0.00 | 0.00 | 0.00 | 2 | 1014.7 |
| 20260508101450 | 93 | 0 | 0.0 | 0.0 | 0.00 | 0.00 | 0.00 | 2 | 1014.7 |
| 20260508095650 | 93 | 0 | 0.0 | 0.0 | 0.00 | 0.00 | 0.00 | 2 | 1013.7 |
| 20260508093850 | 92 | 0 | 0.0 | 0.0 | 0.00 | 0.00 | 0.00 | 2 | 1012.7 |
| 20260508092950 | 91 | 0 | 0.0 | 0.0 | 0.00 | 0.00 | 0.00 | 2 | 1012.7 |
| 20260508091150 | 91 | 0 | 0.0 | 0.0 | 0.00 | 0.00 | 0.00 | 2 | 1013.7 |
| 20260508090250 | 91 | 0 | 0.0 | 0.0 | 0.00 | 0.00 | 0.00 | 2 | 1013.7 |
| 20260508085350 | 92 | 0 | 0.0 | 0.0 | 0.00 | 0.00 | 0.00 | 2 | 1013.7 |
| 20260508083550 | 90 | 0 | 0.0 | 0.0 | 0.00 | 0.00 | 0.00 | 2 | 1013.7 |
| 20260508082650 | 90 | 0 | 0.0 | 0.0 | 0.00 | 0.00 | 0.00 | 2 | 1014.7 |
| 20260508081750 | 90 | 0 | 0.0 | 0.0 | 0.00 | 0.00 | 0.00 | 2 | 1014.7 |
| 20260508080850 | 90 | 0 | 0.0 | 0.0 | 0.00 | 0.00 | 0.00 | 2 | 1014.7 |
| 20260508075950 | 90 | 0 | 0.0 | 0.0 | 0.00 | 0.00 | 0.00 | 2 | 1014.7 |
| 20260508075050 | 89 | 0 | 0.0 | 0.0 | 0.00 | 0.00 | 0.00 | 2 | 1014.7 |
| 20260508073250 | 89 | 0 | 0.0 | 0.0 | 0.00 | 0.00 | 0.00 | 2 | 1014.7 |
| 20260508072350 | 89 | 0 | 0.0 | 0.0 | 0.00 | 0.00 | 0.00 | 2 | 1014.7 |
| 20260508070549 | 88 | 0 | 0.0 | 0.0 | 0.00 | 0.00 | 0.00 | 2 | 1014.7 |
| 20260508065650 | 88 | 248 | 0.0 | 0.9 | 0.00 | 0.00 | 0.00 | 2 | 1014.7 |
| 20260508064750 | 88 | 0 | 0.0 | 0.0 | 0.00 | 0.00 | 0.00 | 2 | 1014.7 |
| 20260508063849 | 87 | 0 | 0.0 | 0.0 | 0.00 | 0.00 | 0.00 | 2 | 1014.7 |
| 20260508062949 | 87 | 0 | 0.0 | 0.0 | 0.00 | 0.00 | 0.00 | 2 | 1014.7 |
| 20260508062049 | 86 | 0 | 0.0 | 0.0 | 0.00 | 0.00 | 0.00 | 2 | 1014.7 |
| 20260508061149 | 85 | 0 | 0.0 | 0.0 | 0.00 | 0.00 | 0.00 | 2 | 1013.7 |
| 20260508055349 | 83 | 0 | 0.0 | 0.0 | 0.00 | 0.00 | 0.00 | 2 | 1013.7 |
| 20260508052649 | 82 | 0 | 0.0 | 0.0 | 0.00 | 0.00 | 0.00 | 21 | 1013.7 |
| 20260508051750 | 81 | 0 | 0.0 | 0.0 | 0.00 | 0.00 | 0.00 | 22 | 1013.7 |
| 20260508045950 | 79 | 0 | 0.0 | 0.0 | 0.00 | 0.00 | 0.00 | 27 | 1013.7 |
| 20260508045049 | 78 | 0 | 0.0 | 0.0 | 0.00 | 0.00 | 0.00 | 31 | 1013.7 |
| 20260508043249 | 74 | 0 | 0.0 | 0.0 | 0.00 | 0.00 | 0.00 | 41 | 1013.7 |
| 20260508042349 | 73 | 0 | 0.0 | 0.0 | 0.00 | 0.00 | 0.00 | 43 | 1012.7 |
| 20260508035649 | 68 | 0 | 0.0 | 0.0 | 0.00 | 0.00 | 0.00 | 52 | 1011.6 |
| 20260508034749 | 67 | 0 | 0.0 | 0.0 | 0.00 | 0.00 | 0.00 | 58 | 1011.6 |
| 20260508032049 | 61 | 0 | 0.0 | 0.0 | 0.00 | 0.00 | 0.00 | 68 | 1011.6 |
| 20260508031149 | 59 | 0 | 0.0 | 0.0 | 0.00 | 0.00 | 0.00 | 70 | 1011.6 |
| 20260508030249 | 58 | 0 | 0.0 | 0.0 | 0.00 | 0.00 | 0.00 | 73 | 1011.6 |
| 20260508025348 | 57 | 0 | 0.0 | 0.0 | 0.00 | 0.00 | 0.00 | 75 | 1011.6 |
| 20260508024449 | 56 | 0 | 0.0 | 0.0 | 0.00 | 0.00 | 0.00 | 78 | 1011.6 |
| 20260508022649 | 53 | 0 | 0.0 | 0.0 | 0.00 | 0.00 | 0.00 | 82 | 1011.6 |
| 20260508020848 | 52 | 0 | 0.0 | 0.0 | 0.00 | 0.00 | 0.00 | 82 | 1010.6 |
| 20260508015948 | 52 | 0 | 0.0 | 0.0 | 0.00 | 0.00 | 0.00 | 81 | 1010.6 |
| 20260508015048 | 52 | 0 | 0.0 | 0.0 | 0.00 | 0.00 | 0.00 | 82 | 1010.6 |
| 20260508014148 | 52 | 0 | 0.0 | 0.0 | 0.00 | 0.00 | 0.00 | 82 | 1010.6 |
| 20260508013249 | 52 | 0 | 0.0 | 0.0 | 0.00 | 0.00 | 0.00 | 82 | 1010.6 |
| 20260508012348 | 51 | 0 | 0.0 | 0.0 | 0.00 | 0.00 | 0.00 | 81 | 1010.6 |
| 20260508011448 | 51 | 0 | 0.0 | 0.0 | 0.00 | 0.00 | 0.00 | 81 | 1010.6 |
| 20260508010548 | 52 | 0 | 0.0 | 0.0 | 0.00 | 0.00 | 0.00 | 81 | 1011.6 |
| 20260508004748 | 52 | 0 | 0.0 | 0.0 | 0.00 | 0.00 | 0.00 | 80 | 1010.6 |
| 20260508003848 | 52 | 0 | 0.0 | 0.0 | 0.00 | 0.00 | 0.00 | 79 | 1011.6 |
| 20260508002948 | 52 | 0 | 0.0 | 0.0 | 0.00 | 0.00 | 0.00 | 79 | 1011.6 |
| 20260508002048 | 52 | 0 | 0.0 | 0.0 | 0.00 | 0.00 | 0.00 | 78 | 1010.6 |
| 20260508001148 | 52 | 0 | 0.0 | 0.0 | 0.00 | 0.00 | 0.00 | 79 | 1011.6 |
| 20260508000250 | 52 | 0 | 0.0 | 0.0 | 0.00 | 0.00 | 0.00 | 78 | 1011.6 |
| 20260507235348 | 52 | 0 | 0.0 | 0.0 | 0.00 | 0.00 | 0.00 | 78 | 1011.6 |
| 20260507234448 | 52 | 0 | 0.0 | 0.0 | 0.00 | 0.00 | 0.00 | 78 | 1011.6 |
| 20260507233548 | 53 | 0 | 0.0 | 0.0 | 0.00 | 0.00 | 0.00 | 78 | 1011.6 |
| 20260507232648 | 53 | 0 | 0.0 | 0.0 | 0.00 | 0.00 | 0.00 | 78 | 1011.6 |
| 20260507231748 | 53 | 0 | 0.0 | 0.0 | 0.00 | 0.00 | 0.00 | 78 | 1011.6 |
| 20260507225948 | 53 | 0 | 0.0 | 0.0 | 0.00 | 0.00 | 0.00 | 78 | 1011.6 |
| 20260507225048 | 53 | 0 | 0.0 | 0.0 | 0.00 | 0.00 | 0.00 | 78 | 1010.6 |
| 20260507224148 | 53 | 0 | 0.0 | 0.0 | 0.00 | 0.00 | 0.00 | 77 | 1010.6 |
| 20260507223248 | 53 | 0 | 0.0 | 0.0 | 0.00 | 0.00 | 0.00 | 76 | 1010.6 |
| 20260507222348 | 53 | 0 | 0.0 | 0.0 | 0.00 | 0.00 | 0.00 | 76 | 1010.6 |
| 20260507221448 | 54 | 0 | 0.0 | 0.0 | 0.00 | 0.00 | 0.00 | 75 | 1010.6 |
| 20260507215647 | 54 | 0 | 0.0 | 0.0 | 0.00 | 0.00 | 0.00 | 74 | 1011.6 |
| 20260507214747 | 54 | 0 | 0.0 | 0.0 | 0.00 | 0.00 | 0.00 | 73 | 1011.6 |
| 20260507213847 | 54 | 0 | 0.0 | 0.0 | 0.00 | 0.00 | 0.00 | 73 | 1011.6 |
| 20260507212947 | 54 | 0 | 0.0 | 0.0 | 0.00 | 0.00 | 0.00 | 73 | 1011.6 |
| 20260507212047 | 55 | 0 | 0.0 | 0.0 | 0.00 | 0.00 | 0.00 | 73 | 1011.6 |
| 20260507211147 | 55 | 0 | 0.0 | 0.0 | 0.00 | 0.00 | 0.00 | 73 | 1011.6 |
| 20260507205358 | 55 | 0 | 0.0 | 0.0 | 0.00 | 0.00 | 0.00 | 72 | 1011.6 |
| 20260507204457 | 55 | 0 | 0.0 | 0.0 | 0.00 | 0.00 | 0.00 | 72 | 1011.6 |
| 20260507202657 | 56 | 0 | 0.0 | 0.0 | 0.00 | 0.00 | 0.00 | 71 | 1011.6 |
| 20260507201757 | 56 | 0 | 0.0 | 0.0 | 0.00 | 0.00 | 0.00 | 71 | 1011.6 |
| 20260507200857 | 56 | 0 | 0.0 | 0.0 | 0.00 | 0.00 | 0.00 | 71 | 1011.6 |
| 20260507195957 | 56 | 0 | 0.0 | 0.0 | 0.00 | 0.00 | 0.00 | 71 | 1011.6 |
| 20260507193257 | 57 | 0 | 0.0 | 0.0 | 0.00 | 0.00 | 0.00 | 71 | 1011.6 |
| 20260507192357 | 57 | 0 | 0.0 | 0.0 | 0.00 | 0.00 | 0.00 | 72 | 1011.6 |
| 20260507191457 | 57 | 0 | 0.0 | 0.0 | 0.00 | 0.00 | 0.00 | 72 | 1011.6 |
| 20260507185657 | 57 | 0 | 0.0 | 0.0 | 0.00 | 0.00 | 0.00 | 71 | 1011.6 |
| 20260507183857 | 58 | 0 | 0.0 | 0.0 | 0.00 | 0.00 | 0.00 | 71 | 1011.6 |
| 20260507182957 | 58 | 0 | 0.0 | 0.0 | 0.00 | 0.00 | 0.00 | 71 | 1011.6 |
| 20260507182057 | 58 | 0 | 0.0 | 0.0 | 0.00 | 0.00 | 0.00 | 70 | 1011.6 |
| 20260507181157 | 58 | 0 | 0.0 | 0.0 | 0.00 | 0.00 | 0.00 | 71 | 1011.6 |
| 20260507180257 | 59 | 0 | 0.0 | 0.0 | 0.00 | 0.00 | 0.00 | 71 | 1011.6 |
| 20260507175357 | 59 | 0 | 0.0 | 0.0 | 0.00 | 0.00 | 0.00 | 70 | 1011.6 |
| 20260507173557 | 60 | 0 | 0.0 | 0.0 | 0.00 | 0.00 | 0.00 | 70 | 1011.6 |
| 20260507172657 | 60 | 0 | 0.0 | 0.0 | 0.00 | 0.00 | 0.00 | 70 | 1011.6 |
| 20260507171756 | 61 | 0 | 0.0 | 0.0 | 0.00 | 0.00 | 0.00 | 69 | 1011.6 |
| 20260507165057 | 63 | 292 | 0.0 | 0.9 | 0.00 | 0.00 | 0.00 | 63 | 1011.6 |
| 20260507164156 | 64 | 0 | 0.0 | 0.0 | 0.00 | 0.00 | 0.00 | 61 | 1010.6 |
| 20260507163256 | 65 | 0 | 0.0 | 0.0 | 0.00 | 0.00 | 0.00 | 57 | 1010.6 |